www.pogodaiklimat.ru

Погода и климат >> Архив погоды >> Индонезия >> Понтианак


ПОГОДА в Понтианаке

  • Прогноз погоды в Понтианаке
  • Монитор погоды в Понтианаке

АРХИВ ПОГОДЫ в Понтианаке

Время (UTC), дата Ветер
(напр.,м/с)
 
Видим.   Явления Облачность Т
(С)
Тd
(С)
f
(%)
Тe
(С)
Тes
(С)
Комфортность P
(гПа)
Po
(гПа)
Тmin
(С)
Tmax
(С)
R
(мм)
R24
(мм)
S
(см)
03 20.06 штиль 0 10 км 9/5 300 м
[Cu hum Ac trans Ci fib]
+27.6 +23.6 79 +38 +44 очень
душно
1011.7 1011.0
06 20.06 Ю 2 10 км 9/6 330 м
[Cu hum Ac trans Ci fib]
+30.6 +24.5 70 +43 +48 опасность
перегрева
1009.3 1008.6
09 20.06 В 2 10 км 6/4 330 м
[Cu hum Ac trans Ci fib]
+31.7 +22.7 59 +41 +43 опасность
перегрева
1007.8 1007.1
12 20.06 штиль 0 6000 м 6/4 330 м
[Cu hum Ac trans Ci fib]
+29.0 +24.4 76 +41 +41 опасность
перегрева
1009.0 1008.3 +32.4
15 20.06 штиль 0 6000 м 6/3 360 м
[Cu hum Ac trans Ci fib]
+26.9 +24.2 85 +37 +37 очень
душно
1010.2 1009.5
18 20.06 штиль 0 6000 м 8/3 360 м
[Cu hum Ac trans Ci fib]
+25.6 +23.7 89 +35 +35 очень
душно
1009.9 1009.2
21 20.06 штиль 0 6000 м 8/3 360 м
[Cu hum Ac trans Ci fib]
+24.8 +23.6 93 +34 +34 очень
душно
1009.0 1008.3
00 21.06 штиль 0 10 км 8/4 360 м
[Cu hum Ac trans Ci fib]
+24.8 +23.9 95 +34 +35 очень
душно
1010.1 1009.4 +23.8
03 21.06 В 2 10 км 8/6 330 м
[Cu hum Ac trans Ci fib]
+30.7 +24.8 71 +44 +48 опасность
перегрева
1009.7 1009.0
06 21.06 штиль 0 10 км 9/6 300 м
[Cb calv Ac trans Ci fib]
+32.9 +23.6 58 +44 +50 опасность
перегрева
1007.7 1007.0
09 21.06 СВ 5 700 м гроза, ливневой дождь 9/6 270 м
[Cb cap Ac As]
+25.6 +24.5 94 +36 +36 очень
душно
1007.1 1006.4 18
12 21.06 штиль 0 6000 м в посл. час дождь {гроза} 9/6 330 м
[Cu hum Ac As]
+26.5 +25.1 92 +38 +38 очень
душно
1008.7 1008.0 +33.8 8
15 21.06 0 н/о +24.8 1009.7 1009.0
18 21.06 штиль 0 6000 м 9/5 360 м
[Cu hum Ac trans Ci fib]
+25.4 +24.5 95 +36 +36 очень
душно
1008.9 1008.2
21 21.06 штиль 0 6000 м гроза без осадков 9/6 300 м
[Cb cap Ac trans Ci fib]
+24.2 +23.2 94 +32 +32 очень
душно
1007.8 1007.1
00 22.06 штиль 0 10 км {гроза} 9/5 360 м
[Cu hum Ac As]
+24.7 +23.7 94 +34 +34 очень
душно
1009.4 1008.7 +23.8 25
03 22.06 ЮВ 3 10 км 9/6 360 м
[Cu hum Ac As]
+28.0 +24.9 83 +40 +43 очень
душно
1009.8 1009.1
06 22.06 Ю 3 10 км 8/5 360 м
[Cu hum Ac trans Ci fib]
+30.6 +25.3 73 +44 +50 опасность
перегрева
1007.6 1006.9
09 22.06 Ю 2 10 км 9/4 360 м
[Cu hum Ac As Ci fib]
+30.4 +25.9 77 +45 +47 опасность
перегрева
1006.8 1006.1
12 22.06 СЗ 5 6000 м 9/4 360 м
[Cu hum Ac As]
+27.7 +25.0 85 +40 +40 очень
душно
1009.3 1008.6 +32.2
15 22.06 штиль 0 6000 м 9/5 360 м
[Cu hum Ac trans Ci fib]
+24.7 +22.9 90 +33 +33 очень
душно
1010.2 1009.5
18 22.06 штиль 0 6000 м 9/6 360 м
[Cu hum Ac trans Ci fib]
+24.1 +22.8 92 +32 +32 очень
душно
1009.0 1008.3
21 22.06 штиль 0 6000 м 8/4 330 м
[Cu hum Ac trans Ci fib]
+23.7 +22.5 93 +31 +31 очень
душно
1009.1 1008.4
00 23.06 штиль 0 8000 м 8/3 360 м
[Cu hum Ac trans Ci fib]
+24.0 +22.7 92 +31 +33 очень
душно
1010.5 1009.8 +23.4
03 23.06 ЮВ 4 10 км 8/5 330 м
[Cu hum Ac trans Ci fib]
+30.2 +24.8 73 +43 +47 опасность
перегрева
1010.7 1010.0
06 23.06 Ю 3 10 км 8/5 330 м
[Cu hum Ac trans Ci fib]
+32.1 +24.3 63 +44 +49 опасность
перегрева
1008.0 1007.3
09 23.06 Ю 4 10 км 8/5 330 м
[Cu hum Ac trans Ci fib]
+32.0 +24.7 65 +45 +46 опасность
перегрева
1007.2 1006.5
12 23.06 Ю 2 6000 м 6/3 400 м
[Cu hum Ac trans Ci fib]
+28.2 +24.5 80 +40 +40 очень
душно
1008.8 1008.1 +33.1
15 23.06 штиль 0 6000 м 6/3 360 м
[Cu hum Ac trans Ci fib]
+26.3 +23.7 86 +36 +36 очень
душно
1010.5 1010.2
18 23.06 штиль 0 6000 м 6/3 360 м
[Cu hum Ac trans Ci fib]
+25.2 +23.5 90 +34 +34 очень
душно
1009.9 1009.2
21 23.06 штиль 0 6000 м 6/3 360 м
[Cu hum Ac trans Ci fib]
+24.8 +23.6 93 +34 +34 очень
душно
1010.1 1009.4
00 24.06 ЮВ 2 3000 м дымка 9/3 360 м
[Cu hum Ac trans Ci fib]
+24.9 +23.9 94 +34 +35 очень
душно
1011.4 1010.7 +24.0
03 24.06 В 2 10 км 8/4 330 м
[Cu hum Ac trans Ci fib]
+29.4 +24.3 74 +41 +47 опасность
перегрева
1011.4 1010.7
06 24.06 В 3 10 км 9/4 360 м
[Cu hum Ac trans Ci fib]
+32.6 +21.8 53 +41 +46 опасность
перегрева
1009.7 1009.0
09 24.06 В 2 10 км 9/3 400 м
[Cu hum Ac trans Ci fib]
+31.6 +23.3 61 +42 +44 опасность
перегрева
1008.9 1008.2
12 24.06 Ю 2 3000 м мгла 9/3 400 м
[Cu hum Ac trans Ci fib]
+28.8 +23.9 75 +40 +40 очень
душно
1009.9 1009.2 +32.9
15 24.06 штиль 0 6000 м 9/3 400 м
[Cu hum Ac trans Ci fib]
+25.9 +23.1 85 +35 +35 очень
душно
1011.5 1010.8
18 24.06 штиль 0 6000 м 6/3 400 м
[Cu hum Ac trans Ci fib]
+24.1 +22.8 92 +32 +32 очень
душно
1011.2 1010.5
21 24.06 Ю 2 6000 м 5/3 400 м
[Cu hum Ac trans Ci fib]
+24.6 +23.6 94 +33 +33 очень
душно
1010.9 1010.2
00 25.06 СВ 2 3000 м дымка 9/5 360 м
[Cu hum Ac trans Ci fib]
+24.6 +23.6 94 +33 +34 очень
душно
1012.2 1011.5 +24.0
03 25.06 В 3 10 км 9/4 360 м
[Cu hum Ac trans Ci fib]
+29.4 +23.7 71 +40 +45 очень
душно
1012.3 1011.6
06 25.06 ЮВ 2 10 км 8/5 360 м
[Cu hum Ac trans Ci fib]
+32.1 +22.9 58 +42 +48 опасность
перегрева
1009.9 1009.2
09 25.06 В 2 10 км 8/4 360 м
[Cu hum Ac trans Ci fib]
+32.6 +22.3 55 +42 +43 опасность
перегрева
1008.4 1007.7
12 25.06 штиль 0 6000 м 9/3 360 м
[Cu hum Ac trans Ci fib]
+30.0 +23.5 68 +41 +41 опасность
перегрева
1010.0 1009.3 +33.0
15 25.06 штиль 0 6000 м 9/3 360 м
[Cu hum Ac trans Ci fib]
+26.1 +23.6 86 +35 +35 очень
душно
1011.5 1010.8
18 25.06 штиль 0 6000 м 8/3 360 м
[Cu hum Ac trans Ci fib]
+25.4 +24.0 92 +35 +35 очень
душно
1010.7 1010.0
21 25.06 штиль 0 3000 м дымка 8/3 360 м
[Cu hum Ac trans Ci fib]
+23.9 +23.0 95 +32 +32 очень
душно
1010.6 1009.9
00 26.06 штиль 0 100 м туман 9/6 90 м
[Cu hum Ac trans Ci fib]
+24.2 +23.9 98 +33 +34 очень
душно
1012.1 1011.4 +23.6
03 26.06 В 2 10 км {туман} 8/5 330 м
[Cu hum Ac trans Ci fib]
+30.0 +24.0 70 +41 +47 опасность
перегрева
1011.9 1011.2
06 26.06 Ю 2 10 км {туман} 8/6 360 м
[Cu hum Ac trans Ci fib]
+32.6 +23.3 58 +43 +49 опасность
перегрева
1009.5 1008.8
09 26.06 штиль 0 10 км 8/5 360 м
[Cu hum Ac trans Ci fib]
+33.2 +23.5 57 +44 +46 опасность
перегрева
1007.7 1007.0
12 26.06 ЮЗ 2 5000 м дым 6/3 360 м
[Cu hum Ac trans Ci fib]
+28.5 +24.5 79 +40 +40 очень
душно
1010.2 1009.5 +34.1
15 26.06 штиль 0 6000 м 6/3 360 м
[Cu hum Ac trans Ci fib]
+27.1 +24.5 86 +38 +38 очень
душно
1011.1 1010.4
18 26.06 штиль 0 6000 м 6/4 400 м
[Cu hum Ac trans Ci fib]
+25.5 +23.9 91 +35 +35 очень
душно
1010.3 1009.6
21 26.06 штиль 0 3000 м дымка 6/4 400 м
[Cu hum Ac trans Ci fib]
+24.8 +23.3 91 +33 +33 очень
душно
1009.9 1009.3
00 27.06 ЮВ 2 4000 м мгла 9/4 180 м
[Cu hum Ac trans Ci fib]
+26.0 +24.9 94 +37 +38 очень
душно
1011.4 1010.7 +24.2

 

Местоположение метеостанции Понтианак (Индонезия): широта -0.15 долгота 109.40 высота над уровнем моря 3 м.

В архиве по умолчанию представлена погода в Понтианаке за последнюю неделю. Архивные данные за месяц целиком и за предыдущие месяцы, начиная с января 2011 года, Вы можете получить, выбрав интересующий диапазон дат из раскрывающегося списка и нажав кнопку "Ввод!".


*Определитесь, кто Вы:
робот инопланетянин человек

Внимание! Время в таблицах - всемирное. Для получения местного времени необходимо прибавить поправку, которая равна 7 ч.

Смотрите также архив погоды в соседних городах и на ближайших метеорологических станциях:

Погода в Кетапанге (Индонезия) (199 км)
Погода в Кучинге (Малайзия) (209 км)
Погода в Парохе (Индонезия) (214 км)
Погода в Синтанге (Индонезия) (239 км)
Погода в Нангапинохе (Индонезия) (266 км)
Погода в Танджунгпандане (Индонезия) (342 км)
Погода в Пангкалан-Буне (Индонезия) (382 км)
Погода в Сибу (Малайзия) (386 км)
Погода на Путусиббау (Индонезия) (409 км)
Погода в Панкалпинанге (Индонезия) (427 км)

Пояснения к столбцам:

Ветер - указаны скорость ветра в м/с - средняя за 10 мин, порывы в срок и между сроками (в фигурных скобках) и направление, откуда дует ветер: С - северный, СВ - северо-восточный, В - восточный, ЮВ - юго-восточный, Ю - южный, ЮЗ - юго-западный, З - западный, СЗ - северо-западный.
Видимость - горизонтальная дальность видимости в метрах или километрах. При видимости от 1 до 10 км при отсутствии осадков обычно наблюдается дымка, при ухудшении видимости до 1 км и менее - туман. В сухую погоду видимость может ухудшаться дымом, пылью или мглою.
Явления - указаны атмосферные явления, наблюдавшиеся в срок или в последний час перед сроком; фигурными скобками обозначены явления, наблюдавшиеся между сроками (за 1-3 часа до срока); квадратными скобками обозначены град или гололедные отложения с указанием их диаметра в мм.
Облачность - указаны через наклонную черту общая и нижняя облачность в баллах и высота нижней границы облаков в метрах; квадратными скобками обозначены формы облаков: Ci - перистые, Cs - перисто-слоистые, Cc - перисто-кучевые, Ac - высококучевые, As - высокослоистые, Sc - слоисто-кучевые, Ns - слоисто-дождевые, Cu - кучевые, Cb - кучево-дождевые. Подробнее классификацию облаков см. в Атласе облаков (PDF).
T - Температура воздуха - температура, измеренная на высоте 2 м над землей.
Td - Температура точки росы - температура, при понижении до которой содержащийся в воздухе водяной пар достигнет насыщения.
f - Относительная влажность воздуха - влажноcть воздуха, измеренная на высоте 2 м над землей.
Te - Эффективная температура - температура, которую ощущает одетый по сезону человек в тени. Характеристика душности погоды. При расчете учитывается влияние влажности воздуха и скорости ветра на теплоощущения человека.
Tes - Эффективная температура на солнце - температура, которую ощущает человек, с поправкой на солнечный нагрев. Характеристика знойности погоды. Зависит от высоты солнца над горизонтом, облачности и скорости ветра. Ночью, в пасмурную погоду, а также при ветре 12 м/с и более поправка равна нулю.
P - Атмосферное давление - приведенное к уровню моря атмосферное давление.
Po - Атмосферное давление - измеренное на уровне метеостанции атмосферное давление.
Tmin - Минимальная температура - минимум температуры воздуха на высоте 2 м над землей.
Tmax - Максимальная температура - максимум температуры воздуха на высоте 2 м над землей.
R - Количество осадков - Количество выпавших осадков за период времени, мм. При наведении курсора мыши на число - период времени, за который выпало указанное количество осадков.
R24 - Количество осадков - Количество выпавших осадков за 24 часа, мм.
S - Снежный покров - Высота снежного покрова, см. При наведении курсора мыши на число - состояние снежного покрова и степень покрытия местности в баллах.